COSMOS 1275 DEB, 12730

Orbit data source: Space-Track

COSMOS 1275 DEB, 12730 is space debris in LEO originally from a launch on Thu, 04 Jun 1981 UTC launched from the Plesetsk Missile And Space Complex (PKMTR). Debris objects in space refer to the collection of defunct objects orbiting the Earth. Examples of debris include non-operational satellites, rocket bodies, and fragments generated from explosions, collisions, or faulty payload assembly.

Loading next visibility...
Identifier
12730, 1981-053BX
Orbit
LEO
Country
Flag of CISCIS
Related business
Manufacturer
Unknown
Mission
Spacecraft
Bus & Motor
Unknown
Mass
Unknown
Launch date (UTC)
1981-06-04 (45 years ago)
Launch vehicle
Unknown
Launch site
Plesetsk Missile And Space Complex (PKMTR)
Object type
Payload
Rocket body
Debris
Shape & HBR
Unknown shape, 0.3 m
Radar Cross Section
Medium (>0.1 m² and <1 m²)

Expand to show TLE details & history
Last TLE update: 10 hours ago

TLE from 10 hours ago
0 COSMOS 1275 DEB
1 12730U 81053BX  26150.11245125  .00004378  00000-0  14879-2 0  9998
2 12730  82.9383  27.4949 0014859 137.4464  14.2419 14.36387524294514
Epoch: 2026-05-30T02:41Z
TLE epoch observation values (Epoch: 2026-05-30T02:41:55.787Z)
Latitude
28.0795°
Longitude
-84.38976°
Altitude
763.677 km
Speed
7.48 km/s
True Right ascension
13h 34m 54s
True Declination
27° 56' 13"
Sunlit
Object was in daylight at epoch
Visualization orbit readout
Latitude
Unknown
Longitude
Unknown
Altitude
Unknown
Speed
Unknown
Apparent Right ascension
Unknown
Apparent Declination
Unknown
Sunlit
N/A
Visualization observer readout
Local Sidereal Time
22:00:35
Azimuth
Unknown
Elevation
Unknown
Doppler factor
Unknown
Orbital elements
Apogee altitude
778.141 km
Perigee altitude
756.906 km
Semi-major axis
7,145.661 km
Eccentricity
0.00149
Inclination
82.9383°
RAAN
27.4949°
Arg. of periapsis
137.4464°
True anomaly
14.28387°
Mean anomaly
14.2419°
Eccentric anomaly
14.26287°
Mean motion
3.59319 °/min
Orbital period
100.19 mins
BSTAR
0.0014879
Loading maneuver chart data...
Computing Atmospheric mass density...
Loading historical data...
Loading historical data...
Loading historical data...
Loading historical data...
Loading historical data...
Loading historical data...
Loading historical data...

Documentation

Showing up to 5 results
|